Regional Weather Roundup
Issued by NWS

Home | Current Version | Previous Version | Text Only | Print | Product List | Glossary Off
Versions: 1 2 3 4 5 6 7 8 9 10 11 12 13 14 15 16 17 18 19 20 21 22 23 24 25 26 27 28 29 30 31 32 33 34 35 36 37 38 39 40 41 42 43 44 45 46 47 48 49 50

000
ASUS45 KABQ 230010
RWRNM
NEW MEXICO REGIONAL WEATHER ROUNDUP
NATIONAL WEATHER SERVICE ALBUQUERQUE NM
600 PM MDT WED MAR 22 2017

NOTE: "FAIR" MEANS FEW OR NO CLOUDS BELOW 12,000 FEET AGL WITH NO
       SIGNIFICANT WEATHER OR OBSTRUCTIONS TO VISION.

      THIS PRODUCT IS RELEASED AS TWO VERSIONS.  ONE VERSION NEAR
      THE TOP OF THE HOUR CONTAINING PRELIMINARY DATA FROM ALBUQUERQUE
      AND OTHER STATIONS.  A FINAL VERSION WITH ADDITIONAL DATA IS
      ISSUED ABOUT 10 MINUTES AFTER THE HOUR.

NMZ501-503-504-510>518-230100-
NORTHWEST PLATEAU/NORTHCENTRAL MOUNTAINS

CITY           SKY/WX    TMP DP  RH WIND       PRES   REMARKS
FARMINGTON     FAIR      69  14  12 W10       29.89F
6HR MIN TEMP:  67; 6HR MAX TEMP:  72;

LOS ALAMOS     FAIR      68  15  13 S9        30.02F
SANTA FE       FAIR      75  14  10 SW17G24   29.96F
6HR MIN TEMP:  67; 6HR MAX TEMP:  78;

TAOS             N/A     66  12  12 SW14      30.03S
ANGEL FIRE     PTSUNNY   60  18  19 W17G23    30.10S

$$
NMZ402-403-502-505>509-230100-
WESTCENTRAL MOUNTAINS/SOUTHWEST MOUNTAINS

CITY           SKY/WX    TMP DP  RH WIND       PRES   REMARKS
GALLUP         FAIR      66  19  16 SW16      29.99F
6HR MIN TEMP:  66; 6HR MAX TEMP:  73;

GRANTS         FAIR      70  16  13 W10       29.98S
SILVER CITY    FAIR      76  17  10 SW18G31   30.00F

$$
NMZ407-409-411-412-230100-
SOUTHERN DESERTS

CITY           SKY/WX    TMP DP  RH WIND       PRES   REMARKS
DEMING         FAIR      85  16   7 SW15G30   29.92F
6HR MIN TEMP:  80; 6HR MAX TEMP:  87;

LAS CRUCES     FAIR      85   9   5 SW17G25   29.94F
HOLLOMAN AFB   FAIR      86   8   5 S22G28    29.93F
ALAMOGORDO     FAIR      86  12   6 SW22G28   29.93S
T OR C         FAIR      82  13   7 SW18G31   29.92F
6HR MIN TEMP:  75; 6HR MAX TEMP:  85;


$$
NMZ519>523-230100-
CENTRAL VALLEYS/CENTRAL HIGHLANDS

CITY           SKY/WX    TMP DP  RH WIND       PRES   REMARKS
ALBUQUERQUE    PTSUNNY   79   5   6 S32G39    29.90F
6HR MIN TEMP:  70; 6HR MAX TEMP:  82;

DOUBLE EAGLE   PTSUNNY   77  18  10 SE23G35   29.92F
MORIARTY ARPT  FAIR      78  10   7 SW29G43   29.99F
6HR MIN TEMP:  69; 6HR MAX TEMP:  82;

CLINES CORNERS FAIR      70   7   8 SW26G37   30.06S
6HR MIN TEMP:  66; 6HR MAX TEMP:  75;

BELEN          FAIR      80  14   8 S28G38    29.90S
6HR MIN TEMP:  71; 6HR MAX TEMP:  83;

SOCORRO        FAIR      81  14   8 S23G32    29.90S
6HR MIN TEMP:  71; 6HR MAX TEMP:  84;


$$
NMZ524>526-539-540-230100-
SOUTHCENTRAL MOUNTAINS

CITY           SKY/WX    TMP DP  RH WIND       PRES   REMARKS
RUIDOSO        FAIR      73   9   8 SW17G29   30.09S

$$
NMZ527>531-230100-
NORTHEAST HIGHLANDS/NORTHEAST PLAINS

CITY           SKY/WX    TMP DP  RH WIND       PRES   REMARKS
LAS VEGAS      FAIR      63  36  36 S22       30.04R
6HR MIN TEMP:  62; 6HR MAX TEMP:  72;

RATON          FAIR      72  29  20 S32G46    29.93R
6HR MIN TEMP:  57; 6HR MAX TEMP:  76;

CLAYTON        FAIR      67  43  41 S22       29.96F
6HR MIN TEMP:  58; 6HR MAX TEMP:  71;


$$
NMZ532>537-230100-
EASTCENTRAL PLAINS

CITY           SKY/WX    TMP DP  RH WIND       PRES   REMARKS
SANTA ROSA     FAIR      78  36  21 S18G28    29.94S
TUCUMCARI      FAIR      79  44  28 S22       29.91F
6HR MIN TEMP:  56; 6HR MAX TEMP:  82;

CANNON AFB     FAIR      75  48  37 SE17G23   29.98F
6HR MIN TEMP:  59; 6HR MAX TEMP:  78;

CLOVIS AIRPORT FAIR      73  48  40 SE18G24   29.99F

$$
NMZ028-029-538-230100-
SOUTHEAST PLAINS

CITY           SKY/WX    TMP DP  RH WIND       PRES   REMARKS
ROSWELL        FAIR      85  43  22 SE21G30     N/A
6HR MIN TEMP:  67; 6HR MAX TEMP:  87;

ARTESIA        FAIR      86  46  25 SE21G26   29.89F
CARLSBAD       FAIR      88  43  20 SE14G21   29.87F
6HR MIN TEMP:  71; 6HR MAX TEMP:  88;

HOBBS          SUNNY     84  46  26 E16       29.95F


$$




USA.gov is the U.S. government's official web portal to all federal, state and local government web resources and services.